South Paris, Maine, United States (04281)
Lat: 44.22N, Lon: 70.51W
Wx Zone: MEZ012
Local Info
Past Weather Observations for Monday, October 27, 2014

NOTE: This archive is for the closest National Weather Service station to South Paris. Information may differ from the station used for current weather conditions.

Click here for Long-term Archive

Time Weather Temperature Dewpoint Humidity Pressure Winds Precip Visibility
23:55
Clear
46°F / 8°C 36°F / 2°C 66% 30.01 in
(1016 mb)
WNW 3.5 mph
(WNW 6 kph)
- 10SM
23:35
Clear
46°F / 8°C 36°F / 2°C 66% 30.01 in
(1016 mb)
NNW 6.9 mph
(NNW 11 kph)
- 10SM
23:15
Clear
46°F / 8°C 36°F / 2°C 66% 30.01 in
(1016 mb)
NW 6.9 mph
(NW 11 kph)
- 10SM
22:55
Clear
46°F / 8°C 36°F / 2°C 66% 30.01 in
(1016 mb)
Calm - 10SM
22:35
Clear
45°F / 7°C 36°F / 2°C 71% 30.01 in
(1016 mb)
SSE 3.5 mph
(SSE 6 kph)
- 10SM
22:15
Clear
45°F / 7°C 36°F / 2°C 71% 29.98 in
(1015 mb)
WNW 6.9 mph
(WNW 11 kph)
- 10SM
21:55
Clear
45°F / 7°C 34°F / 1°C 66% 30.01 in
(1016 mb)
SSE 6.9 mph
(SSE 11 kph)
- 10SM
21:35
Partly Cloudy
46°F / 8°C 36°F / 2°C 66% 29.98 in
(1015 mb)
NW 5.8 mph
(NW 9 kph)
- 10SM
21:15
Partly Cloudy
46°F / 8°C 34°F / 1°C 62% 29.98 in
(1015 mb)
SSW 3.5 mph
(SSW 6 kph)
- 10SM
20:55
Clear
46°F / 8°C 34°F / 1°C 62% 29.98 in
(1015 mb)
Calm - 10SM
20:35
Clear
46°F / 8°C 36°F / 2°C 66% 29.98 in
(1015 mb)
SSW 5.8 mph
(SSW 9 kph)
- 10SM
20:15
Partly Cloudy
46°F / 8°C 36°F / 2°C 66% 29.98 in
(1015 mb)
W 6.9 mph
(W 11 kph)
- 10SM
19:55
Overcast
46°F / 8°C 34°F / 1°C 62% 29.98 in
(1015 mb)
SSW 3.5 mph
(SSW 6 kph)
- 10SM
19:35
Overcast
46°F / 8°C 36°F / 2°C 66% 29.95 in
(1014 mb)
SW 5.8 mph
(SW 9 kph)
- 10SM
19:15
Mostly Cloudy
46°F / 8°C 36°F / 2°C 66% 29.95 in
(1014 mb)
S 4.6 mph
(S 7 kph)
- 10SM
18:55
Clear
48°F / 9°C 34°F / 1°C 58% 29.95 in
(1014 mb)
SSW 3.5 mph
(SSW 6 kph)
- 10SM
18:35
Clear
48°F / 9°C 36°F / 2°C 62% 29.95 in
(1014 mb)
NW 5.8 mph
(NW 9 kph)
- 10SM
18:15
Partly Cloudy
48°F / 9°C 36°F / 2°C 62% 29.95 in
(1014 mb)
NW 10.4 mph
(NW 17 kph)
- 10SM
17:55
Overcast
48°F / 9°C 36°F / 2°C 62% 29.95 in
(1014 mb)
NW 10.4 mph
(NW 17 kph)
- 10SM
17:35
Overcast
50°F / 10°C 36°F / 2°C 58% 29.95 in
(1014 mb)
NNW 10.4 mph
(NNW 17 kph)
- 10SM
17:15
Overcast
50°F / 10°C 36°F / 2°C 58% 29.92 in
(1013 mb)
NW 3.5 mph
(NW 6 kph)
- 10SM
16:55
Mostly Cloudy
50°F / 10°C 36°F / 2°C 58% 29.92 in
(1013 mb)
NW 6.9 mph
(NW 11 kph)
- 10SM
16:35
Clear
50°F / 10°C 36°F / 2°C 58% 29.89 in
(1012 mb)
NW 10.4 mph
(NW 17 kph)
- 10SM
16:15
Mostly Cloudy
52°F / 11°C 36°F / 2°C 54% 29.89 in
(1012 mb)
NW 13.8 mph
(NW 22 kph)
- 10SM
15:55
Overcast
52°F / 11°C 36°F / 2°C 54% 29.89 in
(1012 mb)
NW 13.8 mph
(NW 22 kph)
- 10SM
15:35
Overcast
52°F / 11°C 36°F / 2°C 54% 29.89 in
(1012 mb)
WNW 9.2 mph
(WNW 15 kph)
- 10SM
15:15
Mostly Cloudy
52°F / 11°C 36°F / 2°C 54% 29.86 in
(1011 mb)
NW 11.5 mph
(NW 19 kph)
- 10SM
14:55
Overcast
54°F / 12°C 36°F / 2°C 51% 29.86 in
(1011 mb)
NW 10.4 mph
(NW 17 kph)
- 10SM
14:35
Overcast
54°F / 12°C 36°F / 2°C 51% 29.86 in
(1011 mb)
NW 12.7 mph
(NW 20 kph)
- 10SM
14:15
Mostly Cloudy
54°F / 12°C 36°F / 2°C 51% 29.83 in
(1010 mb)
NW 15 mph
(NW 24 kph)
- 10SM
13:55
Mostly Cloudy
54°F / 12°C 36°F / 2°C 51% 29.83 in
(1010 mb)
NW 16.1 mph
(NW 26 kph)
- 10SM
13:35
Mostly Cloudy
54°F / 12°C 37°F / 3°C 54% 29.83 in
(1010 mb)
NW 19.6 mph
(NW 32 kph)
- 10SM
13:15
Overcast
54°F / 12°C 36°F / 2°C 51% 29.83 in
(1010 mb)
NW 10.4 mph
(NW 17 kph)
- 10SM
12:55
Mostly Cloudy
52°F / 11°C 36°F / 2°C 54% 29.8 in
(1009 mb)
NW 12.7 mph
(NW 20 kph)
- 10SM
12:35
Overcast
52°F / 11°C 36°F / 2°C 54% 29.83 in
(1010 mb)
NW 11.5 mph
(NW 19 kph)
- 10SM
12:15
Overcast
52°F / 11°C 36°F / 2°C 54% 29.83 in
(1010 mb)
WNW 11.5 mph
(WNW 19 kph)
- 10SM
11:55
Overcast
52°F / 11°C 36°F / 2°C 54% 29.83 in
(1010 mb)
NW 16.1 mph
(NW 26 kph)
- 10SM
11:35
Mostly Cloudy
52°F / 11°C 36°F / 2°C 54% 29.83 in
(1010 mb)
NW 13.8 mph
(NW 22 kph)
- 10SM
11:15
Partly Cloudy
52°F / 11°C 36°F / 2°C 54% 29.83 in
(1010 mb)
NW 16.1 mph
(NW 26 kph)
- 10SM
10:55
Partly Cloudy
52°F / 11°C 36°F / 2°C 54% 29.83 in
(1010 mb)
NW 16.1 mph
(NW 26 kph)
- 10SM
10:35
Partly Cloudy
52°F / 11°C 36°F / 2°C 54% 29.83 in
(1010 mb)
WNW 17.3 mph
(WNW 28 kph)
- 10SM
10:15
Mostly Cloudy
52°F / 11°C 36°F / 2°C 54% 29.83 in
(1010 mb)
NW 15 mph
(NW 24 kph)
- 10SM
09:55
Overcast
48°F / 9°C 36°F / 2°C 62% 29.8 in
(1009 mb)
NW 15 mph
(NW 24 kph)
- 10SM
09:35
Mostly Cloudy
48°F / 9°C 36°F / 2°C 62% 29.8 in
(1009 mb)
NW 15 mph
(NW 24 kph)
- 10SM
09:15
Mostly Cloudy
50°F / 10°C 36°F / 2°C 58% 29.8 in
(1009 mb)
NW 15 mph
(NW 24 kph)
- 10SM
08:55
Partly Cloudy
50°F / 10°C 36°F / 2°C 58% 29.77 in
(1008 mb)
W 13.8 mph
(W 22 kph)
- 10SM
08:35
Clear
48°F / 9°C 36°F / 2°C 62% 29.77 in
(1008 mb)
W 12.7 mph
(W 20 kph)
- 10SM
08:15
Clear
48°F / 9°C 36°F / 2°C 62% 29.77 in
(1008 mb)
WNW 15 mph
(WNW 24 kph)
- 10SM
07:55
Clear
48°F / 9°C 36°F / 2°C 62% 29.77 in
(1008 mb)
WNW 15 mph
(WNW 24 kph)
- 10SM
07:35
Clear
46°F / 8°C 36°F / 2°C 66% 29.74 in
(1007 mb)
NW 11.5 mph
(NW 19 kph)
- 10SM
07:15
Clear
46°F / 8°C 34°F / 1°C 62% 29.74 in
(1007 mb)
WNW 15 mph
(WNW 24 kph)
- 10SM
06:55
Clear
46°F / 8°C 34°F / 1°C 62% 29.74 in
(1007 mb)
NW 15 mph
(NW 24 kph)
- 10SM
06:35
Clear
45°F / 7°C 34°F / 1°C 66% 29.74 in
(1007 mb)
NW 8.1 mph
(NW 13 kph)
- 10SM
06:15
Clear
45°F / 7°C 36°F / 2°C 71% 29.71 in
(1006 mb)
NW 9.2 mph
(NW 15 kph)
- 10SM
05:55
Clear
45°F / 7°C 34°F / 1°C 66% 29.71 in
(1006 mb)
NW 5.8 mph
(NW 9 kph)
- 10SM
05:35
Clear
46°F / 8°C 34°F / 1°C 62% 29.71 in
(1006 mb)
NW 3.5 mph
(NW 6 kph)
- 10SM
05:15
Clear
45°F / 7°C 34°F / 1°C 66% 29.68 in
(1005 mb)
WNW 6.9 mph
(WNW 11 kph)
- 10SM
04:55
Clear
45°F / 7°C 34°F / 1°C 66% 29.68 in
(1005 mb)
WNW 4.6 mph
(WNW 7 kph)
- 10SM
04:35
Clear
45°F / 7°C 34°F / 1°C 66% 29.68 in
(1005 mb)
Calm - 10SM
04:15
Partly Cloudy
46°F / 8°C 34°F / 1°C 62% 29.65 in
(1004 mb)
W 6.9 mph
(W 11 kph)
- 10SM
03:55
Mostly Cloudy
45°F / 7°C 34°F / 1°C 66% 29.65 in
(1004 mb)
WNW 5.8 mph
(WNW 9 kph)
- 10SM
03:35
Partly Cloudy
45°F / 7°C 36°F / 2°C 71% 29.65 in
(1004 mb)
W 5.8 mph
(W 9 kph)
- 10SM
03:15
Mostly Cloudy
45°F / 7°C 36°F / 2°C 71% 29.65 in
(1004 mb)
W 5.8 mph
(W 9 kph)
- 10SM
02:55
Partly Cloudy
45°F / 7°C 34°F / 1°C 66% 29.65 in
(1004 mb)
WNW 4.6 mph
(WNW 7 kph)
- 10SM
02:35
Mostly Cloudy
45°F / 7°C 36°F / 2°C 71% 29.62 in
(1003 mb)
Calm - 10SM
02:15
Partly Cloudy
43°F / 6°C 34°F / 1°C 71% 29.62 in
(1003 mb)
Calm - 10SM
01:55
Clear
45°F / 7°C 34°F / 1°C 66% 29.62 in
(1003 mb)
Calm - 10SM
01:35
Clear
45°F / 7°C 34°F / 1°C 66% 29.62 in
(1003 mb)
Calm - 10SM
01:15
Clear
45°F / 7°C 34°F / 1°C 66% 29.62 in
(1003 mb)
W 3.5 mph
(W 6 kph)
- 10SM
00:55
Partly Cloudy
46°F / 8°C 34°F / 1°C 62% 29.59 in
(1002 mb)
NNW 6.9 mph
(NNW 11 kph)
- 10SM
00:35
Partly Cloudy
46°F / 8°C 34°F / 1°C 62% 29.59 in
(1002 mb)
WNW 8.1 mph
(WNW 13 kph)
- 10SM
00:15
Clear
46°F / 8°C 34°F / 1°C 62% 29.59 in
(1002 mb)
W 5.8 mph
(W 9 kph)
- 10SM
Time Weather Temperature Dewpoint Humidity Pressure Winds Precip Visibility


Weather for websites

WeatherForYou.com, LLC is not responsible for any damages or problems caused by this service. Current weather conditions are obtained from the closest station including government and personal stations which may have varying degrees of accuracy. Weather forecasts are derived from the NOAA NDFD. Like all things, this site belongs to Jesus Christ... He just trusts me to maintain it. If you have any questions or comments email webmaster@weatherforyou.com

Copyright © 2014, WeatherForYou.com LLC. All rights reserved.